When you browse on this site, cookies collect data to enhance your experience and personalize the content and advertising you see.
Visit our Privacy Policy to learn more. By continuing to use the site, you agree to this use of cookies and data.
  • In Latvia
  • List of Countries
  • For 7 days
  • Water Temperature
  • Weather Map
  • Weather Widgets
  • user-avatar
    Login

    Hourly Weather Salzburg

    Today, 21 January, Tuesday

    Time Temperature Precipitation Wind Pressure Humidity
    00:00 -10°C° 0 mm 2 mps 637 mmHg 64%
    01:00 -9°C° 0 mm 2 mps 637 mmHg 60%
    02:00 -9°C° 0 mm 2 mps 637 mmHg 58%
    03:00 -9°C° 0 mm 2 mps 637 mmHg 56%
    04:00 -8°C° 0 mm 2 mps 637 mmHg 53%
    05:00 -8°C° 0 mm 2 mps 637 mmHg 52%
    06:00 -8°C° 0 mm 2 mps 637 mmHg 51%
    07:00 -7°C° 0 mm 2 mps 636 mmHg 49%
    08:00 -4°C° 0 mm 1 mps 637 mmHg 52%
    09:00 -2°C° 0 mm 1 mps 638 mmHg 54%
    10:00 -1°C° 0 mm 1 mps 638 mmHg 57%
    11:00 0°C° 0 mm 1 mps 638 mmHg 63%
    12:00 +1°C° 0 mm 1 mps 638 mmHg 69%
    13:00 +2°C° 0 mm 1 mps 638 mmHg 76%
    14:00 +1°C° 0 mm 1 mps 637 mmHg 71%
    15:00 +1°C° 0 mm 1 mps 637 mmHg 65%
    16:00 0°C° 0 mm 1 mps 636 mmHg 60%
    17:00 -1°C° 0 mm 1 mps 636 mmHg 58%
    18:00 -2°C° 0 mm 1 mps 635 mmHg 56%
    19:00 -5°C° 0 mm 2 mps 635 mmHg 54%
    20:00 -5°C° 0 mm 2 mps 635 mmHg 52%
    21:00 -5°C° 0 mm 2 mps 635 mmHg 51%
    22:00 -5°C° 0 mm 2 mps 634 mmHg 49%
    23:00 -3°C° 0 mm 1 mps 634 mmHg 48%

    Tomorrow, 22 January, Wednesday

    Time Temperature Precipitation Wind Pressure Humidity
    00:00 -3°C° 0 mm 1 mps 634 mmHg 47%
    01:00 -3°C° 0 mm 1 mps 634 mmHg 46%
    02:00 -3°C° 0 mm 1 mps 633 mmHg 45%
    03:00 -3°C° 0 mm 1 mps 633 mmHg 44%
    04:00 -3°C° 0 mm 1 mps 633 mmHg 43%
    05:00 -3°C° 0 mm 1 mps 632 mmHg 43%
    06:00 -3°C° 0 mm 1 mps 632 mmHg 44%
    07:00 -3°C° 0 mm 1 mps 632 mmHg 44%
    08:00 -2°C° 0 mm 1 mps 632 mmHg 49%
    09:00 -2°C° 0 mm 0 mps 633 mmHg 55%
    10:00 -1°C° 0 mm 0 mps 633 mmHg 61%
    11:00 -1°C° 0 mm 0 mps 633 mmHg 66%
    12:00 0°C° 0 mm 0 mps 633 mmHg 71%
    13:00 +1°C° 0 mm 0 mps 633 mmHg 76%
    14:00 0°C° 0 mm 0 mps 632 mmHg 72%
    15:00 -1°C° 0 mm 0 mps 632 mmHg 69%
    16:00 -2°C° 0 mm 0 mps 631 mmHg 65%
    17:00 -3°C° 0 mm 0 mps 631 mmHg 64%
    18:00 -3°C° 0 mm 1 mps 631 mmHg 63%
    19:00 -6°C° 0 mm 1 mps 630 mmHg 62%
    20:00 -6°C° 0 mm 1 mps 630 mmHg 60%
    21:00 -6°C° 0 mm 1 mps 631 mmHg 58%
    22:00 -6°C° 0 mm 1 mps 631 mmHg 56%
    23:00 -6°C° 0 mm 1 mps 631 mmHg 55%

    Day after tomorrow, 23 January, Thursday

    Time Temperature Precipitation Wind Pressure Humidity
    00:00 -6°C° 0 mm 1 mps 631 mmHg 54%
    01:00 -6°C° 0 mm 1 mps 631 mmHg 53%
    02:00 -6°C° 0 mm 1 mps 631 mmHg 53%
    03:00 -6°C° 0 mm 1 mps 630 mmHg 52%
    04:00 -6°C° 0 mm 1 mps 630 mmHg 51%
    05:00 -6°C° 0 mm 1 mps 630 mmHg 50%
    06:00 -6°C° 0 mm 1 mps 630 mmHg 49%
    07:00 -6°C° 0 mm 1 mps 630 mmHg 48%
    08:00 -4°C° 0 mm 1 mps 630 mmHg 51%
    09:00 -2°C° 0 mm 1 mps 631 mmHg 54%
    10:00 -1°C° 0 mm 1 mps 631 mmHg 57%
    11:00 0°C° 0 mm 1 mps 631 mmHg 62%
    12:00 +1°C° 0 mm 1 mps 631 mmHg 66%
    13:00 +1°C° 0 mm 2 mps 631 mmHg 71%
    14:00 -1°C° 0 mm 2 mps 630 mmHg 71%
    15:00 -1°C° 0 mm 2 mps 630 mmHg 70%
    16:00 -2°C° 0 mm 2 mps 629 mmHg 70%
    17:00 -3°C° 0 mm 2 mps 629 mmHg 68%
    18:00 -4°C° 0 mm 2 mps 629 mmHg 66%
    19:00 -5°C° 0 mm 2 mps 628 mmHg 64%
    20:00 -5°C° 0 mm 2 mps 628 mmHg 61%
    21:00 -5°C° 0 mm 2 mps 628 mmHg 59%
    22:00 -3°C° 0 mm 1 mps 628 mmHg 57%
    23:00 -3°C° 0 mm 1 mps 628 mmHg 55%

    24 January, Friday

    Time Temperature Precipitation Wind Pressure Humidity
    00:00 -3°C° 0 mm 1 mps 628 mmHg 54%
    01:00 -3°C° 0 mm 1 mps 628 mmHg 52%
    02:00 -3°C° 0 mm 1 mps 628 mmHg 52%
    03:00 -3°C° 0 mm 1 mps 627 mmHg 52%
    04:00 -3°C° 0 mm 1 mps 627 mmHg 52%
    05:00 -3°C° 0 mm 1 mps 627 mmHg 52%
    06:00 -5°C° 0 mm 2 mps 627 mmHg 51%
    07:00 -5°C° 0 mm 2 mps 627 mmHg 51%
    08:00 -2°C° 0 mm 1 mps 627 mmHg 54%
    09:00 0°C° 0 mm 1 mps 628 mmHg 57%
    10:00 +1°C° 0 mm 1 mps 628 mmHg 60%
    11:00 +2°C° 0 mm 1 mps 628 mmHg 66%
    12:00 +2°C° 0 mm 1 mps 628 mmHg 71%
    13:00 +3°C° 0 mm 1 mps 628 mmHg 76%
    14:00 +2°C° 0 mm 1 mps 627 mmHg 74%
    15:00 +1°C° 0 mm 1 mps 627 mmHg 72%
    16:00 +1°C° 0 mm 1 mps 626 mmHg 70%
    17:00 -2°C° 0 mm 2 mps 626 mmHg 70%
    18:00 -3°C° 0 mm 2 mps 626 mmHg 70%
    19:00 -4°C° 0 mm 2 mps 626 mmHg 70%
    20:00 -4°C° 0 mm 2 mps 625 mmHg 70%
    21:00 -4°C° 0 mm 2 mps 625 mmHg 70%
    22:00 -5°C° 0 mm 2 mps 625 mmHg 70%
    23:00 -5°C° 0 mm 2 mps 625 mmHg 72%

    25 January, Saturday

    Time Temperature Precipitation Wind Pressure Humidity
    00:00 -3°C° 0 mm 1 mps 625 mmHg 73%
    01:00 -3°C° 0 mm 1 mps 625 mmHg 74%
    02:00 -3°C° 0 mm 1 mps 625 mmHg 75%
    03:00 -3°C° 0 mm 1 mps 624 mmHg 77%
    04:00 -3°C° 0 mm 1 mps 624 mmHg 78%
    05:00 -3°C° 0 mm 1 mps 624 mmHg 79%
    06:00 -3°C° 0 mm 1 mps 624 mmHg 80%
    07:00 -4°C° 0 mm 0 mps 624 mmHg 81%
    08:00 -3°C° 0 mm 0 mps 625 mmHg 81%
    09:00 -3°C° 0 mm 0 mps 625 mmHg 81%
    10:00 -2°C° 0 mm 0 mps 626 mmHg 81%
    11:00 -1°C° 0 mm 0 mps 626 mmHg 82%
    12:00 -1°C° 0 mm 0 mps 626 mmHg 83%
    13:00 0°C° 0 mm 0 mps 626 mmHg 84%
    14:00 -1°C° 0 mm 0 mps 626 mmHg 86%
    15:00 -1°C° 0 mm 0 mps 626 mmHg 87%
    16:00 -2°C° 0 mm 0 mps 626 mmHg 89%
    17:00 -3°C° 0 mm 0 mps 626 mmHg 89%
    18:00 -4°C° 0 mm 0 mps 625 mmHg 89%
    19:00 -3°C° 0 mm 1 mps 625 mmHg 89%
    20:00 -4°C° 0 mm 1 mps 625 mmHg 88%
    21:00 -4°C° 0 mm 1 mps 626 mmHg 87%
    22:00 -4°C° 0 mm 1 mps 626 mmHg 87%
    23:00 -4°C° 0 mm 1 mps 626 mmHg 86%

    26 January, Sunday

    Time Temperature Precipitation Wind Pressure Humidity
    00:00 -4°C° 0 mm 1 mps 626 mmHg 85%
    01:00 -4°C° 0 mm 1 mps 626 mmHg 84%
    02:00 -4°C° 0 mm 1 mps 626 mmHg 83%
    03:00 -4°C° 0 mm 1 mps 626 mmHg 83%
    04:00 -4°C° 0 mm 1 mps 626 mmHg 82%
    05:00 -4°C° 0 mm 1 mps 626 mmHg 82%
    06:00 -4°C° 0 mm 1 mps 626 mmHg 82%
    07:00 -4°C° 0 mm 1 mps 626 mmHg 82%
    08:00 -3°C° 0 mm 1 mps 627 mmHg 81%
    09:00 -2°C° 0 mm 1 mps 627 mmHg 80%
    10:00 -1°C° 0 mm 1 mps 628 mmHg 79%
    11:00 0°C° 0 mm 1 mps 628 mmHg 80%
    12:00 0°C° 0 mm 0 mps 628 mmHg 80%
    13:00 +1°C° 0 mm 0 mps 628 mmHg 80%
    14:00 0°C° 0 mm 0 mps 628 mmHg 83%
    15:00 -1°C° 0 mm 0 mps 627 mmHg 85%
    16:00 -1°C° 0 mm 0 mps 627 mmHg 87%
    17:00 -2°C° 0 mm 0 mps 627 mmHg 86%
    18:00 -3°C° 0 mm 0 mps 627 mmHg 85%
    19:00 -3°C° 0 mm 1 mps 627 mmHg 84%
    20:00 -3°C° 0 mm 1 mps 627 mmHg 84%
    21:00 -4°C° 0 mm 1 mps 628 mmHg 83%
    22:00 -4°C° 0 mm 1 mps 628 mmHg 83%
    23:00 -4°C° 0 mm 1 mps 628 mmHg 82%
    Show more